Regional Weather Roundup
Issued by NWS

Home | Current Version | Previous Version | Graphics & Text | Print | Product List | Glossary On
Versions: 1 2 3 4 5 6 7 8 9 10 11 12 13 14 15 16 17 18 19 20 21 22 23 24 25 26 27 28 29 30 31 32 33 34 35 36 37 38 39 40 41 42 43 44 45 46 47 48 49 50
000
ASUS45 KPSR 261910
RWRAZ

ARIZONA HOURLY REGIONAL WEATHER ROUNDUP
NATIONAL WEATHER SERVICE PHOENIX AZ
1200 PM MST TUE JUL 26 2016

NOTE: FAIR INDICATES FEW OR NO CLOUDS BELOW 12,000 FEET WITH NO
SIGNIFICANT WEATHER AND/OR OBSTRUCTIONS TO VISIBILITY.

AZZ001>003-036-262000-
NORTHWEST ARIZONA

CITY           SKY/WX    TMP DP  RH WIND       PRES   REMARKS
BULLHEAD CITY  SUNNY    108  55  18 SW5       29.81F HX 106
KINGMAN        MOSUNNY  102  45  14 SE22G28   30.04F
$$

AZZ004>008-015-016-018-262000-
NORTH CENTRAL ARIZONA

CITY           SKY/WX    TMP DP  RH WIND       PRES   REMARKS
GRAND CANYON   PTSUNNY   86  45  23 S12       30.32F
WILLIAMS       PTSUNNY   77  52  41 NE5       30.41F
PRESCOTT       TSTM      80  51  36 SW12      30.20R
FLAGSTAFF      PTSUNNY   80  53  39 E10       30.34F
PAYSON         MOSUNNY   90  52  27 SW8G16    30.20F
PAGE           SUNNY     95  44  17 VRB5      30.10F
$$

AZZ009>014-017-262000-
NORTHEAST ARIZONA

CITY           SKY/WX    TMP DP  RH WIND       PRES   REMARKS
WINSLOW        SUNNY     94  50  22 MISG      30.16F
SAINT JOHNS    MOSUNNY   89  49  25 N10G22    30.20F
WINDOW ROCK    CLOUDY    81  48  31 VRB3      30.32F
SHOW LOW       MOSUNNY   82  46  28 W3        30.29F
$$

AZZ023-262000-
GREATER PHOENIX AREA

CITY           SKY/WX    TMP DP  RH WIND       PRES   REMARKS
PHOENIX        MOSUNNY  105  57  20 CALM      29.84F HX 104
BUCKEYE          N/A    102  57  22 S5        29.87F HX 101
GLENDALE       MOSUNNY  106  57  20 S6        29.87F HX 105
LUKE AFB       SUNNY    103  59  23 W1        29.84F HX 104
DEER VALLEY    SUNNY    103  56  21 SW7G13    29.87F HX 102
MESA-FALCON    MOSUNNY  N/A N/A N/A VRB6      29.85F
MESA-GATEWAY   MOSUNNY  100  57  23 W5        29.89F
CHANDLER       MOSUNNY  102  57  22 VRB6      29.86F HX 101
$$

AZZ027-028-262000-
SOUTHWEST MARICOPA COUNTY AND PINAL COUNTY

CITY           SKY/WX    TMP DP  RH WIND       PRES   REMARKS
CASA GRANDE    SUNNY    102  57  22 NW7G16    29.90F HX 101
GILA BEND      SUNNY    104  59  22 W12       29.83F HX 104
$$

AZZ503-504-507>509-262000-
SOUTHEAST ARIZONA

CITY           SKY/WX    TMP DP  RH WIND       PRES   REMARKS
TUCSON         MOSUNNY   96  61  31 NW7       29.99F
DAVIS-MONTHAN  SUNNY     95  60  31 VRB3      29.98F
RYAN FIELD     SUNNY     97  61  30 NW7       29.98F
NOGALES        PTSUNNY   91  64  40 NW8       30.07F
SIERRA VISTA   CLOUDY    88  57  34 VRB5      30.16F
DOUGLAS        SUNNY     87  63  44 W8        30.10F
SAFFORD        SUNNY     95  56  26 S8        30.01F
$$

AZZ020-021-025-026-031-262000-
SOUTHWEST ARIZONA

CITY           SKY/WX    TMP DP  RH WIND       PRES   REMARKS
YUMA           MOSUNNY   99  71  40 S14       29.83F HX 107
$$

CAZ031-033-041-043-047-048-061-262000-
SOUTHERN CALIFORNIA

CITY           SKY/WX    TMP DP  RH WIND       PRES   REMARKS
DOWNTOWN L.A.  SUNNY     85  63  47 VRB5      29.88F
L.A. AIRPORT   MOSUNNY   75  65  70 W12       29.91S
SAN DIEGO      MOSUNNY   77  67  71 NW9       29.90F
BURBANK        SUNNY     90  55  30 S9        29.89F
ONTARIO        MOSUNNY   94  52  24 VRB3      29.90F
RIVERSIDE      SUNNY     96  49  20 VRB6      29.89F
PALM SPRINGS   SUNNY    106  53  17 SE7       29.83F HX 104
EL CENTRO NAS  MOSUNNY  104  63  26 S12G18    29.80F HX 106
IMPERIAL       SUNNY    106  69  30 SE12G17   29.78F HX 114
BLYTHE         SUNNY    106  62  23 S15G23    29.81F HX 108
NEEDLES        MOSUNNY  109  55  17 CALM      29.82F HX 108
$$

NVZ020-UTZ003-262000-
SOUTHERN NEVADA-UTAH

CITY           SKY/WX    TMP DP  RH WIND       PRES   REMARKS
LAS VEGAS      MOSUNNY  103  45  14 NE7       29.89F
SALT LAKE CITY MOSUNNY   99  41  13 S16G22    30.03F
$$

NMZ009-TXZ055-262000-
NEW MEXICO-WEST TEXAS

CITY           SKY/WX    TMP DP  RH WIND       PRES   REMARKS
ALBUQUERQUE    MOSUNNY   85  56  37 VRB6      30.21F
EL PASO        MOSUNNY   93  55  27 SW8       30.08F
$$


........................KEY........................
SKY/WX - SKY CONDITION/WEATHER
TMP    - TEMPERATURE IN FAHRENHEIT
DP     - DEW POINT IN FAHRENHEIT
RH     - RELATIVE HUMIDITY IN PERCENT
WIND   - DIRECTION AND SPEED IN MILES PER HOUR (MPH)
VRB    - VARIABLE WIND DIRECTION
PRES   - MEAN SEA LEVEL PRESSURE IN INCHES OF MERCURY
         F - FALLING PRESSURE   R - RISING PRESSURE
         S - STEADY PRESSURE
VSB    - VISIBILITY IN MILES
HX     - HEAT INDEX IN FAHRENHEIT
WCI    - WIND CHILL INDEX IN FAHRENHEIT
TC     - TEMPERATURE IN CELSIUS WHICH IS ALSO KNOWN AS
         TEMPERATURE IN CENTIGRADE
AFB    - AIR FORCE BASE
         LUKE AFB IS LUKE AIR FORCE BASE
         DAVIS-MONTHAN IS DAVIS-MONTHAN AIR FORCE BASE
NAS    - NAVAL AIR STATION
         EL CENTRO NAS IS EL CENTRO NAVAL AIR STATION
N/A    - NOT AVAILABLE




USA.gov is the U.S. government's official web portal to all federal, state and local government web resources and services.